SCP
0 0 0 0 0 0 0 0 0 0 0 -0 -0 0 0 -0 0 0 0 0 0 0 0 0 0 2 2 1 1 2 1 1 1 0 1 0 0 0 0 0 0 0 0 0
0 0 0 0 0 -0 0 0 0 0 0 0 0 0 0 0 0 0 0 0 0 0 0 0 0 0 2 1 1 1 0 1 0 0 0 0 0 0 0 0 0 0 0 0
0 0 0 0 0 0 0 0 0 0 0 0 0 0 0 -0 0 0 0 0 0 0 0 0 0 0 0 1 1 1 -0 0 0 0 0 0 0 0 0 0 0 0 0 0
0 0 0 0 0 0 0 0 0 0 -0 0 0 0 0 -0 -0 0 0 0 0 0 0 0 0 0 0 1 0 1 1 0 0 0 0 0 0 0 0 0 0 0 0 0
0 0 0 0 0 0 0 0 0 0 0 0 0 0 0 0 0 0 0 0 0 0 0 0 0 0 1 1 1 1 1 0 0 0 0 0 0 0 0 0 0 0 0 0
0 0 0 0 0 0 0 0 0 0 0 0 0 0 0 0 0 0 0 0 0 0 0 0 0 0 1 1 1 1 1 0 0 0 0 0 0 0 0 0 0 0 0 0
0 0 0 0 0 0 0 0 0 0 0 -0 0 0 -0 0 -0 0 0 0 0 0 0 0 0 1 2 1 1 1 1 0 0 0 0 0 0 0 0 0 0 0 0 0
0 0 0 0 0 0 0 0 0 0 0 0 0 -0 0 0 0 0 0 0 0 0 0 0 1 1 1 1 1 0 0 0 0 0 0 0 0 0 0 0 0 0 0 0
0 0 0 0 0 0 0 0 0 0 0 0 0 0 0 0 0 0 0 0 0 0 0 0 1 2 2 1 1 0 0 0 0 0 0 0 0 0 0 0 0 0 0 0
0 0 0 0 0 -0 0 0 0 0 0 -0 0 0 0 0 0 0 0 0 0 0 0 1 1 1 2 1 1 0 0 0 0 0 0 0 0 0 0 0 0 0 0 0
0 0 0 -0 0 0 0 0 0 0 0 0 0 0 0 0 0 0 0 0 0 0 0 1 1 1 1 0 0 0 0 0 0 0 0 0 0 0 0 0 0 0 0 0
0 -0 -0 0 0 0 -0 -0 0 -0 0 0 0 -0 -0 -0 -0 0 0 0 0 0 0 0 0 0 0 0 0 0 0 0 0 0 0 0 0 0 0 0 0 0 0 0
0 -0 -0 -0 -0 0 0 -0 -0 -0 0 0 0 -0 -0 -0 -0 0 0 0 0 0 0 -0 0 0 0 0 0 0 0 0 0 0 0 0 0 0 0 0 0 0 0 0
-0 -0 -0 -0 0 0 -0 0 -0 0 -0 0 -0 -0 -0 -0 -0 0 0 0 -0 -0 0 0 0 0 0 0 0 0 0 0 0 0 0 0 0 0 0 0 0 0 0 0
0 0 0 0 -0 0 0 0 0 -0 -0 -0 -0 -0 -0 -0 0 0 0 0 -0 0 0 0 0 0 0 0 0 0 0 0 0 0 0 0 0 0 0 0 0 0 0 0
0 0 0 0 0 -0 0 0 0 0 0 -0 -0 -0 -0 -0 0 0 0 0 0 0 0 0 0 0 0 0 0 0 0 0 0 0 0 0 0 0 0 0 0 0 0 0
0 0 -0 -0 0 0 0 0 0 0 -0 -0 -0 0 -0 0 0 0 0 0 0 0 0 0 0 0 0 0 0 0 0 0 0 0 0 0 0 0 0 0 0 0 0 0
-0 -0 -0 0 -0 -0 -0 -0 0 0 -0 0 0 0 0 0 0 0 0 0 0 0 0 0 0 0 0 0 0 0 0 0 0 0 0 0 0 0 0 0 0 0 0 0
-0 -0 0 0 -0 -0 -0 -0 -0 0 0 0 0 0 0 0 0 0 0 0 0 0 0 0 0 0 0 0 0 0 0 0 0 0 0 0 0 0 0 0 0 0 0 0
-0 -0 0 0 -0 -0 -0 -0 -0 -0 0 0 0 0 0 0 -0 -0 0 0 0 0 0 0 0 0 0 0 0 0 0 0 0 0 0 0 0 0 0 0 0 0 0 0
-0 -0 -0 -0 -0 -0 -0 -0 -0 -0 0 0 0 0 0 0 -0 -0 -0 0 0 0 0 0 0 0 0 0 0 0 0 0 0 0 0 0 0 0 0 0 0 0 0 0
0 -0 -0 -0 -0 -0 -0 -0 -0 0 -0 0 0 0 0 0 0 0 -0 0 0 0 0 0 0 0 0 0 0 0 0 0 0 0 0 0 0 0 0 0 0 0 0 0
0 0 0 0 0 0 -0 -0 -0 -0 0 0 0 0 0 0 -0 -0 0 -0 0 0 0 0 0 0 0 0 0 0 0 0 0 0 0 0 0 0 0 0 0 0 0 0
0 -0 -0 -0 -0 0 -0 -0 -0 -0 -0 0 -0 0 0 0 -0 0 0 0 -0 0 0 0 0 0 0 0 0 0 0 0 0 0 0 0 0 0 0 0 0 0 0 0
0 0 -0 -0 -0 -0 -0 -0 0 -0 -0 -0 -0 0 0 0 0 -0 0 -0 -0 -0 0 0 0 0 0 0 0 0 0 0 0 0 0 0 0 0 0 0 0 0 0 0
0 0 -0 -0 -0 -0 -0 -0 -0 -0 -0 0 -0 -0 -0 0 0 0 0 -0 -0 -0 0 -0 -0 0 0 0 0 0 0 0 0 0 0 0 0 0 0 0 0 0 0 0
0 0 0 -0 -0 -0 -0 -0 -0 -0 -0 0 0 0 0 -0 -0 -0 -0 -0 -0 -0 -0 -0 0 -0 -0 0 0 0 0 0 0 0 0 0 0 0 0 0 0 0 0 0
Wind_Speed_500mb
41 43 43 49 51 47 44 41 37 47 51 43 38 31 37 56 55 58 49 43 40 39 41 39 38 34 52 52 58 66 66 82 72 65 63 63 63 60 72 73 70 60 53 45
39 42 45 50 51 49 46 41 39 33 42 35 18 40 39 48 52 57 53 48 47 40 38 38 38 36 46 50 57 61 66 66 61 59 70 68 68 74 77 72 67 66 52 49
29 29 37 36 24 13 22 23 20 28 38 42 33 32 40 58 60 65 57 36 35 37 40 36 36 42 29 50 51 64 60 67 71 71 70 67 74 76 71 73 73 65 59 49
8 19 14 3 12 16 23 30 32 40 40 31 31 44 61 58 57 44 31 39 48 46 43 38 36 41 43 51 62 64 70 80 84 84 75 79 78 79 82 83 78 70 59 52
8 16 36 40 6 11 19 34 41 32 24 38 53 59 51 27 28 47 59 58 51 47 47 42 37 40 42 55 61 76 80 81 93 86 85 83 78 80 79 86 80 69 58 56
8 12 13 1 9 6 12 28 15 16 30 45 54 32 31 49 52 68 57 52 54 47 44 41 37 39 47 63 69 88 82 89 85 80 83 91 86 85 75 80 74 66 58 53
25 19 21 22 9 9 14 18 41 54 57 60 37 41 76 65 63 65 56 57 49 46 42 42 37 27 54 67 70 85 90 85 83 71 87 88 91 87 85 82 70 64 58 58
18 22 20 17 14 13 28 61 62 60 62 55 59 69 63 68 69 62 55 50 43 43 38 36 36 30 55 70 73 77 81 82 74 76 90 92 96 97 89 74 76 67 65 55
16 12 27 36 49 65 63 65 61 61 54 55 64 62 68 63 62 59 55 49 41 37 36 31 33 32 49 63 75 80 78 78 78 78 84 84 84 93 78 65 76 71 60 55
34 30 34 47 69 66 49 45 54 59 55 58 55 64 64 59 62 60 49 44 36 31 30 27 26 31 45 64 74 80 81 80 78 79 79 75 88 95 93 94 79 72 61 55
35 48 50 63 44 37 46 51 61 52 55 53 54 69 63 65 66 60 49 38 32 33 26 22 26 34 59 61 77 87 84 85 85 80 83 93 95 98 92 81 75 77 58 56
36 58 52 59 61 47 58 55 46 56 53 53 59 64 69 69 64 54 44 36 34 31 23 24 32 41 54 64 64 77 81 82 85 91 93 102 103 94 87 71 67 60 54 53
46 65 64 66 56 51 32 45 50 44 50 61 59 57 58 59 46 40 28 23 20 23 29 32 39 46 57 50 48 63 73 81 84 90 97 108 109 98 88 72 67 63 55 56
59 61 48 48 29 36 40 44 41 43 50 49 57 52 47 43 33 23 17 17 15 24 32 33 45 43 45 49 65 69 73 81 88 89 95 102 97 88 78 73 69 55 45 43
34 30 41 34 34 36 38 36 40 46 50 53 50 45 44 35 24 22 17 6 10 12 22 37 45 46 48 75 75 74 77 78 83 83 101 98 91 87 80 76 68 61 56 52
29 17 18 26 29 32 33 36 41 48 46 50 49 42 31 15 14 18 13 8 3 15 28 37 40 41 52 57 71 80 79 80 88 109 109 111 101 91 83 69 72 69 65 67
17 17 24 25 29 33 37 40 36 39 45 44 40 32 15 6 5 11 13 8 6 24 33 40 44 45 51 59 56 70 74 89 96 106 109 106 97 88 83 84 81 81 70 73
15 15 17 21 28 35 39 39 40 39 40 36 27 18 8 7 14 16 17 14 15 18 18 28 39 46 52 59 67 76 82 93 93 91 93 94 90 89 91 86 73 76 72 73
20 19 21 25 28 29 32 37 37 34 32 25 14 13 18 24 23 20 18 21 27 28 18 10 22 34 37 54 65 75 90 96 98 95 91 81 76 77 70 78 78 72 77 82
20 21 25 27 29 31 34 36 39 38 30 24 25 28 33 38 35 31 29 35 33 28 16 10 13 23 34 47 67 83 92 95 95 89 76 60 62 75 78 75 68 76 79 80
19 23 28 32 35 35 37 40 49 55 50 49 53 51 49 45 43 40 43 44 35 25 18 18 14 28 33 43 57 74 75 70 73 70 68 64 71 76 82 81 79 78 77 70
16 23 27 30 34 39 44 50 57 62 64 65 71 71 64 59 64 55 49 47 41 34 29 29 22 20 22 24 33 45 62 67 67 60 52 55 62 61 64 75 78 77 77 66
14 17 24 28 30 32 33 40 45 47 52 60 70 74 73 75 62 48 51 49 41 37 41 42 32 20 21 29 37 46 52 55 59 61 56 58 58 61 63 70 70 72 69 56
13 15 16 20 25 29 36 37 40 44 46 45 43 47 54 59 58 55 48 39 40 38 42 39 37 40 46 45 39 43 50 54 53 55 59 49 44 50 49 49 49 50 52 52
13 14 14 14 17 21 25 29 34 38 41 45 47 45 42 40 44 43 45 48 41 36 36 35 32 30 30 29 26 22 24 39 45 46 42 45 51 43 41 44 45 46 47 48
13 13 14 16 15 16 16 18 26 28 31 37 40 40 39 37 35 33 31 33 38 42 41 37 31 31 30 31 29 24 29 32 40 42 42 44 39 31 34 41 46 49 51 51
17 20 18 19 18 18 20 23 24 26 28 27 29 32 36 36 35 34 33 33 31 30 31 33 36 38 35 30 32 27 21 25 28 36 37 42 39 38 45 46 45 47 50 51
Wind_Direction_500mb
261 275 288 282 282 283 275 264 255 279 285 292 302 307 295 302 298 295 301 306 302 297 292 301 310 253 227 215 206 200 198 195 198 203 203 206 209 207 206 201 200 188 184 179
282 286 281 281 284 281 270 271 271 282 287 276 306 307 298 301 301 295 298 305 301 297 291 295 301 295 224 220 209 210 206 207 212 217 213 207 210 202 201 198 192 189 179 180
267 285 309 290 267 241 276 256 257 265 295 303 308 286 311 307 304 296 295 325 315 306 295 294 297 297 251 222 210 213 209 216 216 218 212 204 198 197 197 198 191 183 181 174
285 300 248 332 258 266 281 282 275 278 298 319 299 287 287 309 304 296 300 312 307 303 297 295 292 288 261 218 213 210 199 216 216 213 202 196 198 202 199 194 188 181 177 174
250 261 282 286 302 215 269 290 293 285 304 303 302 308 301 287 309 319 303 300 297 295 291 292 292 283 264 220 213 199 201 200 201 204 198 199 194 194 203 184 184 179 175 174
211 265 270 282 250 260 316 285 83 268 286 293 315 307 303 318 301 304 300 290 290 291 288 286 288 278 238 209 206 198 196 200 199 198 199 194 188 182 183 189 181 175 172 173
239 250 258 274 278 172 261 320 329 314 306 308 304 294 301 307 302 299 292 287 285 283 279 283 288 260 218 204 205 192 196 198 202 201 198 195 192 193 186 186 174 169 164 179
251 248 267 54 153 247 301 306 304 304 308 306 301 300 298 297 296 295 289 282 278 276 274 278 283 249 200 196 198 191 193 196 201 199 197 194 192 192 187 178 179 171 166 166
258 270 297 294 284 287 291 297 296 305 309 301 301 296 297 296 293 290 286 278 269 260 266 265 266 235 205 187 199 196 190 187 190 189 189 190 192 186 179 179 184 169 166 167
270 266 272 287 291 295 291 291 300 303 300 302 297 294 296 296 291 289 282 274 266 259 246 255 250 225 206 194 200 201 189 192 194 193 189 193 189 178 172 176 181 180 172 170
280 271 285 284 292 292 302 298 300 299 302 299 296 297 300 298 294 291 283 272 256 239 233 240 217 210 208 210 198 193 195 193 194 195 193 186 185 179 178 179 180 182 184 176
268 285 284 289 292 300 303 299 300 305 303 297 302 301 304 302 299 292 276 269 250 230 226 224 210 212 208 192 191 192 186 187 188 187 187 187 180 171 172 171 178 175 184 179
267 274 275 283 290 298 297 302 305 304 302 305 307 307 305 302 297 293 270 255 235 224 216 207 206 199 192 194 204 201 197 191 188 190 190 186 177 173 167 174 185 186 191 182
273 275 283 291 300 302 303 307 307 305 311 312 311 311 311 308 305 302 291 246 206 193 198 199 204 199 198 220 213 202 196 194 189 190 185 175 175 169 167 174 184 187 188 189
301 271 269 287 301 307 310 310 313 318 321 318 323 319 320 309 318 325 314 257 208 196 201 205 192 195 194 200 196 194 196 193 193 187 184 173 168 166 167 171 173 180 175 172
271 263 285 316 320 321 318 317 323 324 324 327 328 330 333 316 334 330 345 354 227 178 194 196 196 196 198 202 195 190 191 192 188 177 174 172 169 168 166 174 181 176 174 175
338 328 337 334 332 328 325 327 329 329 331 334 332 339 354 327 34 43 50 53 169 181 180 191 197 192 193 195 199 202 198 186 177 176 176 173 169 172 173 181 184 178 179 179
22 14 355 336 332 335 339 344 348 349 343 339 340 354 51 92 78 66 65 81 100 132 162 194 191 188 197 202 202 195 190 181 173 170 166 169 171 177 181 179 170 172 175 177
22 12 358 358 358 356 356 0 6 4 356 0 21 62 86 87 82 75 77 87 88 89 95 147 194 199 202 202 198 190 177 172 169 166 168 172 166 170 166 168 167 171 175 171
21 17 17 22 23 23 26 32 35 34 36 63 80 89 89 87 82 81 81 78 75 75 72 85 164 180 193 194 186 178 170 171 168 165 167 159 161 164 163 166 168 173 173 174
27 27 35 39 43 48 52 54 56 57 59 68 77 79 79 82 85 86 79 69 64 58 58 80 118 140 157 174 174 173 167 164 165 166 165 163 170 168 174 175 174 176 176 168
42 39 46 51 57 63 67 67 67 65 64 67 72 74 79 82 79 75 75 74 66 67 75 75 93 110 121 152 156 161 165 164 160 157 156 162 162 163 164 176 178 181 181 171
61 49 49 55 58 61 64 63 62 62 60 57 60 65 67 64 70 68 72 83 79 81 81 78 75 91 113 134 151 152 156 164 164 163 166 169 170 172 177 183 188 189 180 173
66 65 54 47 54 63 60 59 61 61 63 64 65 64 70 74 74 69 67 86 88 82 78 76 99 91 92 103 127 149 156 158 159 163 156 147 159 162 160 164 165 170 172 172
75 66 61 54 48 45 49 53 59 59 61 64 63 64 68 70 72 71 69 70 85 100 93 84 93 97 92 98 99 114 120 139 161 166 166 163 155 152 159 162 168 170 170 169
73 73 63 61 55 49 48 47 47 46 45 54 58 59 62 66 71 76 81 80 77 78 81 87 98 96 125 118 117 120 161 161 146 150 152 159 161 172 177 174 173 176 176 179
81 79 70 68 60 62 62 54 51 49 50 46 54 56 59 64 70 74 75 79 84 88 90 83 83 87 94 107 135 141 142 155 164 162 168 171 174 176 168 168 173 180 186 190
Wind_Speed_850mb
41 43 43 49 51 47 44 41 37 47 51 43 38 31 37 56 55 58 49 43 40 39 41 39 38 34 52 52 58 66 66 82 72 65 63 63 63 60 72 73 70 60 53 45
39 42 45 50 51 49 46 41 39 33 42 35 18 40 39 48 52 57 53 48 47 40 38 38 38 36 46 50 57 61 66 66 61 59 70 68 68 74 77 72 67 66 52 49
29 29 37 36 24 13 22 23 20 28 38 42 33 32 40 58 60 65 57 36 35 37 40 36 36 42 29 50 51 64 60 67 71 71 70 67 74 76 71 73 73 65 59 49
8 19 14 3 12 16 23 30 32 40 40 31 31 44 61 58 57 44 31 39 48 46 43 38 36 41 43 51 62 64 70 80 84 84 75 79 78 79 82 83 78 70 59 52
8 16 36 40 6 11 19 34 41 32 24 38 53 59 51 27 28 47 59 58 51 47 47 42 37 40 42 55 61 76 80 81 93 86 85 83 78 80 79 86 80 69 58 56
8 12 13 1 9 6 12 28 15 16 30 45 54 32 31 49 52 68 57 52 54 47 44 41 37 39 47 63 69 88 82 89 85 80 83 91 86 85 75 80 74 66 58 53
25 19 21 22 9 9 14 18 41 54 57 60 37 41 76 65 63 65 56 57 49 46 42 42 37 27 54 67 70 85 90 85 83 71 87 88 91 87 85 82 70 64 58 58
18 22 20 17 14 13 28 61 62 60 62 55 59 69 63 68 69 62 55 50 43 43 38 36 36 30 55 70 73 77 81 82 74 76 90 92 96 97 89 74 76 67 65 55
16 12 27 36 49 65 63 65 61 61 54 55 64 62 68 63 62 59 55 49 41 37 36 31 33 32 49 63 75 80 78 78 78 78 84 84 84 93 78 65 76 71 60 55
34 30 34 47 69 66 49 45 54 59 55 58 55 64 64 59 62 60 49 44 36 31 30 27 26 31 45 64 74 80 81 80 78 79 79 75 88 95 93 94 79 72 61 55
35 48 50 63 44 37 46 51 61 52 55 53 54 69 63 65 66 60 49 38 32 33 26 22 26 34 59 61 77 87 84 85 85 80 83 93 95 98 92 81 75 77 58 56
36 58 52 59 61 47 58 55 46 56 53 53 59 64 69 69 64 54 44 36 34 31 23 24 32 41 54 64 64 77 81 82 85 91 93 102 103 94 87 71 67 60 54 53
46 65 64 66 56 51 32 45 50 44 50 61 59 57 58 59 46 40 28 23 20 23 29 32 39 46 57 50 48 63 73 81 84 90 97 108 109 98 88 72 67 63 55 56
59 61 48 48 29 36 40 44 41 43 50 49 57 52 47 43 33 23 17 17 15 24 32 33 45 43 45 49 65 69 73 81 88 89 95 102 97 88 78 73 69 55 45 43
34 30 41 34 34 36 38 36 40 46 50 53 50 45 44 35 24 22 17 6 10 12 22 37 45 46 48 75 75 74 77 78 83 83 101 98 91 87 80 76 68 61 56 52
29 17 18 26 29 32 33 36 41 48 46 50 49 42 31 15 14 18 13 8 3 15 28 37 40 41 52 57 71 80 79 80 88 109 109 111 101 91 83 69 72 69 65 67
17 17 24 25 29 33 37 40 36 39 45 44 40 32 15 6 5 11 13 8 6 24 33 40 44 45 51 59 56 70 74 89 96 106 109 106 97 88 83 84 81 81 70 73
15 15 17 21 28 35 39 39 40 39 40 36 27 18 8 7 14 16 17 14 15 18 18 28 39 46 52 59 67 76 82 93 93 91 93 94 90 89 91 86 73 76 72 73
20 19 21 25 28 29 32 37 37 34 32 25 14 13 18 24 23 20 18 21 27 28 18 10 22 34 37 54 65 75 90 96 98 95 91 81 76 77 70 78 78 72 77 82
20 21 25 27 29 31 34 36 39 38 30 24 25 28 33 38 35 31 29 35 33 28 16 10 13 23 34 47 67 83 92 95 95 89 76 60 62 75 78 75 68 76 79 80
19 23 28 32 35 35 37 40 49 55 50 49 53 51 49 45 43 40 43 44 35 25 18 18 14 28 33 43 57 74 75 70 73 70 68 64 71 76 82 81 79 78 77 70
16 23 27 30 34 39 44 50 57 62 64 65 71 71 64 59 64 55 49 47 41 34 29 29 22 20 22 24 33 45 62 67 67 60 52 55 62 61 64 75 78 77 77 66
14 17 24 28 30 32 33 40 45 47 52 60 70 74 73 75 62 48 51 49 41 37 41 42 32 20 21 29 37 46 52 55 59 61 56 58 58 61 63 70 70 72 69 56
13 15 16 20 25 29 36 37 40 44 46 45 43 47 54 59 58 55 48 39 40 38 42 39 37 40 46 45 39 43 50 54 53 55 59 49 44 50 49 49 49 50 52 52
13 14 14 14 17 21 25 29 34 38 41 45 47 45 42 40 44 43 45 48 41 36 36 35 32 30 30 29 26 22 24 39 45 46 42 45 51 43 41 44 45 46 47 48
13 13 14 16 15 16 16 18 26 28 31 37 40 40 39 37 35 33 31 33 38 42 41 37 31 31 30 31 29 24 29 32 40 42 42 44 39 31 34 41 46 49 51 51
17 20 18 19 18 18 20 23 24 26 28 27 29 32 36 36 35 34 33 33 31 30 31 33 36 38 35 30 32 27 21 25 28 36 37 42 39 38 45 46 45 47 50 51
Wind_Direction_850mb
261 275 288 282 282 283 275 264 255 279 285 292 302 307 295 302 298 295 301 306 302 297 292 301 310 253 227 215 206 200 198 195 198 203 203 206 209 207 206 201 200 188 184 179
282 286 281 281 284 281 270 271 271 282 287 276 306 307 298 301 301 295 298 305 301 297 291 295 301 295 224 220 209 210 206 207 212 217 213 207 210 202 201 198 192 189 179 180
267 285 309 290 267 241 276 256 257 265 295 303 308 286 311 307 304 296 295 325 315 306 295 294 297 297 251 222 210 213 209 216 216 218 212 204 198 197 197 198 191 183 181 174
285 300 248 332 258 266 281 282 275 278 298 319 299 287 287 309 304 296 300 312 307 303 297 295 292 288 261 218 213 210 199 216 216 213 202 196 198 202 199 194 188 181 177 174
250 261 282 286 302 215 269 290 293 285 304 303 302 308 301 287 309 319 303 300 297 295 291 292 292 283 264 220 213 199 201 200 201 204 198 199 194 194 203 184 184 179 175 174
211 265 270 282 250 260 316 285 83 268 286 293 315 307 303 318 301 304 300 290 290 291 288 286 288 278 238 209 206 198 196 200 199 198 199 194 188 182 183 189 181 175 172 173
239 250 258 274 278 172 261 320 329 314 306 308 304 294 301 307 302 299 292 287 285 283 279 283 288 260 218 204 205 192 196 198 202 201 198 195 192 193 186 186 174 169 164 179
251 248 267 54 153 247 301 306 304 304 308 306 301 300 298 297 296 295 289 282 278 276 274 278 283 249 200 196 198 191 193 196 201 199 197 194 192 192 187 178 179 171 166 166
258 270 297 294 284 287 291 297 296 305 309 301 301 296 297 296 293 290 286 278 269 260 266 265 266 235 205 187 199 196 190 187 190 189 189 190 192 186 179 179 184 169 166 167
270 266 272 287 291 295 291 291 300 303 300 302 297 294 296 296 291 289 282 274 266 259 246 255 250 225 206 194 200 201 189 192 194 193 189 193 189 178 172 176 181 180 172 170
280 271 285 284 292 292 302 298 300 299 302 299 296 297 300 298 294 291 283 272 256 239 233 240 217 210 208 210 198 193 195 193 194 195 193 186 185 179 178 179 180 182 184 176
268 285 284 289 292 300 303 299 300 305 303 297 302 301 304 302 299 292 276 269 250 230 226 224 210 212 208 192 191 192 186 187 188 187 187 187 180 171 172 171 178 175 184 179
267 274 275 283 290 298 297 302 305 304 302 305 307 307 305 302 297 293 270 255 235 224 216 207 206 199 192 194 204 201 197 191 188 190 190 186 177 173 167 174 185 186 191 182
273 275 283 291 300 302 303 307 307 305 311 312 311 311 311 308 305 302 291 246 206 193 198 199 204 199 198 220 213 202 196 194 189 190 185 175 175 169 167 174 184 187 188 189
301 271 269 287 301 307 310 310 313 318 321 318 323 319 320 309 318 325 314 257 208 196 201 205 192 195 194 200 196 194 196 193 193 187 184 173 168 166 167 171 173 180 175 172
271 263 285 316 320 321 318 317 323 324 324 327 328 330 333 316 334 330 345 354 227 178 194 196 196 196 198 202 195 190 191 192 188 177 174 172 169 168 166 174 181 176 174 175
338 328 337 334 332 328 325 327 329 329 331 334 332 339 354 327 34 43 50 53 169 181 180 191 197 192 193 195 199 202 198 186 177 176 176 173 169 172 173 181 184 178 179 179
22 14 355 336 332 335 339 344 348 349 343 339 340 354 51 92 78 66 65 81 100 132 162 194 191 188 197 202 202 195 190 181 173 170 166 169 171 177 181 179 170 172 175 177
22 12 358 358 358 356 356 0 6 4 356 0 21 62 86 87 82 75 77 87 88 89 95 147 194 199 202 202 198 190 177 172 169 166 168 172 166 170 166 168 167 171 175 171
21 17 17 22 23 23 26 32 35 34 36 63 80 89 89 87 82 81 81 78 75 75 72 85 164 180 193 194 186 178 170 171 168 165 167 159 161 164 163 166 168 173 173 174
27 27 35 39 43 48 52 54 56 57 59 68 77 79 79 82 85 86 79 69 64 58 58 80 118 140 157 174 174 173 167 164 165 166 165 163 170 168 174 175 174 176 176 168
42 39 46 51 57 63 67 67 67 65 64 67 72 74 79 82 79 75 75 74 66 67 75 75 93 110 121 152 156 161 165 164 160 157 156 162 162 163 164 176 178 181 181 171
61 49 49 55 58 61 64 63 62 62 60 57 60 65 67 64 70 68 72 83 79 81 81 78 75 91 113 134 151 152 156 164 164 163 166 169 170 172 177 183 188 189 180 173
66 65 54 47 54 63 60 59 61 61 63 64 65 64 70 74 74 69 67 86 88 82 78 76 99 91 92 103 127 149 156 158 159 163 156 147 159 162 160 164 165 170 172 172
75 66 61 54 48 45 49 53 59 59 61 64 63 64 68 70 72 71 69 70 85 100 93 84 93 97 92 98 99 114 120 139 161 166 166 163 155 152 159 162 168 170 170 169
73 73 63 61 55 49 48 47 47 46 45 54 58 59 62 66 71 76 81 80 77 78 81 87 98 96 125 118 117 120 161 161 146 150 152 159 161 172 177 174 173 176 176 179
81 79 70 68 60 62 62 54 51 49 50 46 54 56 59 64 70 74 75 79 84 88 90 83 83 87 94 107 135 141 142 155 164 162 168 171 174 176 168 168 173 180 186 190